星链-35403(STARLINK-35403)

导读

STARLINK-35403是美国SpaceX公司星链(Starlink)低轨卫星互联网星座的一员,于2025年10月19日发射。星链星座旨在为全球提供宽带互联网服务,该卫星采用平板设计,搭载霍尔推进器,运行于近地轨道,具备自主避撞能力,设计寿命5年以上,服役末期会主动离轨并在大气层中烧毁,减少空间碎片影响。

Basic Information
目录编号:
66081
目录名称:
STARLINK-35403
国际标识:
2025-235Z
轨道中心:
EARTH
卫星名称:
星链-35403
卫星全名:
星链-35403(STARLINK-35403)
卫星状态:
在轨 (已飞行320 天)
发射日期:
2025-10-19 UTC
国别 :
美国 (US)
星等 :
--
Orbit Information
数据来源 国际轨道数据
星历时间: 2026-09-04T01:23:21+0800
14小时前
查看轨道信息
半长轴: 6848.869km
偏心率: 0.0000807
轨道倾角: 53.159°
近地点辐角 72.217°
升交点赤经 136.594°
平近点角 287.892°
近地点: 470.179km
远地点: 471.285km
周期: 94.013分钟
每日圈数: 15.317028
Detailed Information
固有亮度:
5
最大亮度:
2.5
卫星平台:
Starlink V1.0
覆盖范围:
全球
运营商:
太空探索技术公司
运营商所在国:
美国
制造商(研发单位):
太空探索技术公司
制造商所在国:
美国
使用方式:
暂无
Satellite Introduction
Starlink 计划是 SpaceX 推出的全球卫星互联网项目,通过发射低轨道卫星,为全球尤其是偏远地区提供高速、低延迟的互联网服务。自 2019 年起,Starlink 已部署数千颗卫星,旨在缩小全球数字鸿沟,推动互联网普及。该项目还为军事、航空等行业提供通信支持,带来广泛经济效益。
2D Orbit Map
3D Orbit Map
Orbit Altitude Analysis Chart
Orbit Inclination Analysis Chart
Orbit Comprehensive Analysis Chart
View Comprehensive Chart
Conjunction Data List
Event ID Objects TCA Miss Dist (km) Collision Risk Probability Collision Risk Index (CRI) Action
CDM_260905-072705-112606-608121
2026-09-05T
07:27:45+0000
0.652 km
远距离
6.503274E-5 中风险 0.71
CDM_260903-072205-227306-608121
2026-09-03T
07:22:55+0000
2.047 km
极远距离
2.229834E-6 低风险 0.42
CDM_260903-053306-608106-759222
2026-09-03T
05:33:57+0000
2.355 km
极远距离
1.960942E-6 低风险 0.41
CDM_260904-230905-718006-608122
OBJECT Q (57180)
2026-09-04T
23:09:05+0000
2.572 km
极远距离
1.669261E-6 低风险 0.39
CDM_260905-055305-112606-608121
2026-09-05T
05:53:47+0000
2.149 km
极远距离
1.536657E-6 低风险 0.39
CDM_260904-173106-527406-608122
2026-09-04T
17:31:40+0000
2.780 km
极远距离
1.470533E-6 低风险 0.38
CDM_260905-160405-112606-608121
2026-09-05T
16:04:30+0000
2.792 km
极远距离
9.684168E-7 极低风险 0.35
CDM_260905-090906-608106-903821
2026-09-05T
09:09:55+0000
2.699 km
极远距离
9.673822E-7 极低风险 0.35